Starlink 30823

operational
NORAD ID: 58248 Int'l Des: 2023-171 Owner: SPXS Country: US Constellation: starlink
LEOCIRCULAR

Starlink 30823について

説明を読み込み中...

リアルタイム位置

3D地球を読み込み中...

次回通過

高度履歴

Altitude vs Time

uPlot chart will show altitude changes over time

軌道要素

1 58248U 23171U 25351.09604271 .00002753 00000-0 21870-3 0 9994
2 58248 43.0032 14.5810 0001643 267.2061 92.8593 15.02546237117301
Epoch: Dec 17, 2025 • Age: 16 hours

現在のステータス

高度 561.4 km
速度 7.59 km/s
衛星直下点 34.71°N, 54.27°E
打ち上げ日 Nov 8, 2023
運用期間 2.1 years
タイプ internet

技術仕様

分類 Payload
質量 730.00 kg
乾燥質量 700.00 kg
総質量 730.00 kg
長さ 0.30 m
直径 4.10 m
スパン 29.00 m
形状 Box + pan
製造者 SPXS
バスタイプ Starlink V2M
フェーズステータス In Orbit
所有者/国 SPXS/US

大規模コンステレーション

Loading constellations...